FW0019 Weather Reports


time (UTC)temp
C
wind
direction
speed
KPH
gust
KPH
rain 1hr
cm
rain 24hr
cm
rain mn
cm
humidity
%
barometer
mb
20260901221538 24 138 19.3 33.8 0.00 0.00 0.00 39 879.9
20260901214536 25 123 17.7 37.0 0.00 0.00 0.00 33 880.3
20260901213035 25 136 14.5 30.6 0.00 0.00 0.00 31 880.3
20260901211538 25 148 16.1 30.6 0.00 0.00 0.00 30 880.4
20260901210038 25 143 17.7 27.4 0.00 0.00 0.00 31 880.4
20260901204531 25 115 19.3 30.6 0.00 0.00 0.00 32 880.5
20260901203037 25 148 16.1 32.2 0.00 0.00 0.00 32 880.6
20260901201533 25 127 16.1 35.4 0.00 0.00 0.00 33 880.7
20260901200029 25 139 19.3 32.2 0.00 0.00 0.00 31 880.7
20260901194532 25 139 14.5 29.0 0.00 0.00 0.00 28 880.8
20260901193027 25 149 12.9 29.0 0.00 0.00 0.00 26 881.0
20260901191525 24 103 12.9 33.8 0.00 0.00 0.00 28 880.9
20260901190025 24 166 9.7 38.6 0.00 0.00 0.00 30 881.0
20260901184521 23 175 12.9 27.4 0.00 0.00 0.00 31 881.1
20260901183019 23 100 12.9 24.1 0.00 0.00 0.00 29 881.3
20260901181527 23 110 9.7 25.7 0.00 0.00 0.00 28 881.2
20260901180016 23 164 14.5 29.0 0.00 0.00 0.00 27 881.1
20260901174514 22 107 11.3 27.4 0.00 0.00 0.00 25 881.2
20260901173010 22 99 9.7 22.5 0.00 0.00 0.00 24 881.1
20260901171506 22 134 16.1 30.6 0.00 0.00 0.00 20 881.0
20260901170009 21 142 16.1 24.1 0.00 0.00 0.00 20 880.8
20260901164507 21 132 14.5 25.7 0.00 0.00 0.00 19 880.6
20260901163003 21 152 17.7 25.7 0.00 0.00 0.00 19 880.3
20260901161601 21 128 11.3 24.1 0.00 0.00 0.00 20 880.3
20260901160057 21 157 14.5 24.1 0.00 0.00 0.00 19 880.0
20260901154605 21 122 14.5 25.7 0.00 0.00 0.00 20 879.9
20260901153053 20 130 14.5 25.7 0.00 0.00 0.00 19 879.9
20260901151554 20 146 11.3 22.5 0.00 0.00 0.00 20 880.0
20260901150100 20 142 12.9 20.9 0.00 0.00 0.00 21 879.9
20260901144547 19 130 12.9 22.5 0.00 0.00 0.00 21 879.8
20260901143043 19 112 11.3 22.5 0.00 0.00 0.00 22 879.8
20260901141540 18 97 12.9 19.3 0.00 0.00 0.00 22 879.8
20260901140040 18 113 11.3 20.9 0.00 0.00 0.00 22 879.7
20260901134540 17 77 8.0 17.7 0.00 0.00 0.00 22 879.6
20260901133034 17 110 11.3 17.7 0.00 0.00 0.00 22 879.4
20260901131543 17 97 8.0 19.3 0.00 0.00 0.00 23 879.4
20260901130032 17 91 8.0 16.1 0.00 0.00 0.00 24 879.4
20260901124532 16 96 8.0 16.1 0.00 0.00 0.00 25 879.3
20260901123037 16 71 9.7 14.5 0.00 0.00 0.00 24 879.3
20260901121530 17 103 8.0 16.1 0.00 0.00 0.00 24 879.2
20260901120030 17 113 8.0 14.5 0.00 0.00 0.00 24 879.1
20260901114538 16 89 8.0 14.5 0.00 0.00 0.00 24 879.1
20260901113029 17 76 9.7 16.1 0.00 0.00 0.00 24 879.0
20260901111528 17 85 9.7 17.7 0.00 0.00 0.00 24 879.0
20260901110026 17 85 9.7 16.1 0.00 0.00 0.00 25 878.9
20260901104524 16 91 9.7 16.1 0.00 0.00 0.00 26 879.0
20260901103024 16 88 8.0 16.1 0.00 0.00 0.00 27 879.2
20260901101522 16 108 8.0 14.5 0.00 0.00 0.00 27 879.3
20260901100022 16 109 8.0 12.9 0.00 0.00 0.00 27 879.3
20260901094530 16 95 4.8 14.5 0.00 0.00 0.00 27 879.4
20260901093021 16 88 4.8 12.9 0.00 0.00 0.00 27 879.4
20260901091520 17 115 6.4 16.1 0.00 0.00 0.00 26 879.4
20260901090019 17 83 6.4 12.9 0.00 0.00 0.00 25 879.3
20260901084526 17 92 8.0 14.5 0.00 0.00 0.00 23 879.4
20260901083019 17 104 8.0 20.9 0.00 0.00 0.00 23 879.4
20260901081522 17 93 6.4 11.3 0.00 0.00 0.00 25 879.5
20260901080021 17 104 6.4 12.9 0.00 0.00 0.00 26 879.6
20260901074518 17 90 6.4 14.5 0.00 0.00 0.00 28 879.6
20260901073009 16 100 6.4 12.9 0.00 0.00 0.00 28 879.7
20260901071508 16 107 4.8 11.3 0.00 0.00 0.00 35 879.7
20260901070007 15 102 3.2 9.7 0.00 0.00 0.00 42 879.7
20260901064504 14 104 3.2 8.0 0.00 0.00 0.00 49 879.8
20260901063003 14 329 0.0 0.0 0.00 0.00 0.00 61 879.9
20260901061503 14 329 0.0 0.0 0.00 0.00 0.00 55 880.0
20260901060001 14 329 0.0 0.0 0.00 0.00 0.00 53 879.9
20260901054601 14 329 0.0 0.0 0.00 0.00 0.00 50 879.9
20260901053101 14 329 0.0 0.0 0.00 0.00 0.00 52 879.9
20260901051616 14 329 0.0 0.0 0.00 0.00 0.00 45 879.9
20260901050059 15 329 0.0 1.6 0.00 0.00 0.00 43 879.9
20260901044555 15 329 0.0 4.8 0.00 0.00 0.00 48 879.9
20260901043056 15 322 1.6 4.8 0.00 0.00 0.00 43 880.0
20260901041552 15 322 0.0 0.0 0.00 0.00 0.00 44 879.8
20260901040051 15 322 0.0 1.6 0.00 0.00 0.00 50 879.8
20260901034602 16 319 0.0 3.2 0.00 0.00 0.00 53 879.5
20260901033106 16 300 0.0 4.8 0.00 0.00 0.00 54 879.4
20260901031545 16 106 0.0 4.8 0.00 0.00 0.00 54 879.2
20260901030043 17 106 0.0 6.4 0.00 0.00 0.00 58 879.0
20260901024543 17 111 3.2 12.9 0.00 0.00 0.00 60 878.9
20260901023048 17 112 6.4 12.9 0.00 0.00 0.00 60 878.7
20260901021547 18 130 6.4 16.1 0.00 0.00 0.00 58 878.6
20260901020040 19 118 11.3 20.9 0.00 0.00 0.00 55 878.4
20260901014537 20 148 11.3 24.1 0.00 0.00 0.00 53 878.4
20260901013039 21 100 12.9 27.4 0.00 0.00 0.00 51 878.4
20260901011535 21 125 14.5 25.7 0.00 0.00 0.00 50 878.4
20260901010035 22 96 12.9 22.5 0.00 0.00 0.00 49 878.5
20260901004530 22 126 14.5 30.6 0.00 0.00 0.00 47 878.5
20260901003033 23 85 14.5 33.8 0.00 0.00 0.00 46 878.5
20260901001538 23 135 12.9 25.7 0.00 0.00 0.00 45 878.7
20260901000028 23 112 19.3 29.0 0.00 0.00 0.00 45 878.8
20260831234528 24 129 16.1 29.0 0.00 0.00 0.00 43 878.8
20260831233027 24 114 9.7 29.0 0.00 0.00 0.00 43 878.9
20260831231525 24 116 16.1 25.7 0.00 0.00 0.00 42 878.8
20260831230025 24 90 20.9 32.2 0.00 0.00 0.00 42 878.9
20260831224523 25 121 19.3 29.0 0.00 0.00 0.00 40 879.0
20260831223023 25 126 17.7 29.0 0.00 0.00 0.00 40 879.0